Weather History for Pratt, KS

Change the Weather History Date:

Saturday, August 30, 2014

  Actual Average (KP28) Record (KP28)
Temperature  
Mean Temperature 74 °F 77 °F  
Max Temperature 89 °F 90 °F 111 °F (1939)
Min Temperature 59 °F 65 °F 44 °F (1915)
Degree Days  
Heating Degree Days 0 0  
Month to date heating degree days 0  
Since 1 June heating degree days 3  
Since 1 July heating degree days 0  
Cooling Degree Days 9 12  
Month to date cooling degree days 461  
Year to date cooling degree days 1498  
Since 1 June cooling degree days 1342  
Growing Degree Days 24 (Base 50)    
Moisture  
Dew Point 55 °F    
Average Humidity 55    
Maximum Humidity 88    
Minimum Humidity 21    
Precipitation  
Precipitation 0.00 in 0.11 in 3.87 in (2003)
Month to date precipitation 3.01  
Year to date precipitation 20.24  
Snow  
Snow 0.00 in 0.00 in - ()
Month to date snowfall 0.0  
Since 1 June snowfall 0.0  
Since 1 July snowfall 0.0  
Snow Depth -    
Sea Level Pressure  
Sea Level Pressure 29.96 in    
Wind  
Wind Speed 5 mph (SW)    
Max Wind Speed 13 mph    
Max Gust Speed 20 mph    
Visibility 10 miles    
Events      
T = Trace of Precipitation, MM = Missing Value Source: NWS Daily Summary

Daily Weather History Graph

Daily Weather History Graph

Search for Another Location

Airport:

Trip Planner

Search our weather history database for the weather conditions in past years. The results will help you decide how hot, cold, wet, or windy it might be!

Date:

Astronomy

Aug. 30, 2014 Rise Set
Actual Time 7:03 AM CDT 8:07 PM CDT
Civil Twilight 6:36 AM CDT 8:33 PM CDT
Nautical Twilight 6:04 AM CDT 9:05 PM CDT
Astronomical Twilight 5:31 AM CDT 9:39 PM CDT
Moon 11:46 AM CDT (8/30) 10:48 PM CDT (8/30)
Length of Visible Light 13h 57m
Length of Day
13h 03m
Waxing Crescent, 23% of the Moon is Illuminated
Aug 30
Waxing Crescent
Sep 2
First Quarter
Sep 8
Full
Sep 15
Last Quarter
Sep 24
New

Hourly Weather History & Observations

Time (CDT) Temp. Heat Index Dew Point Humidity Pressure Visibility Wind Dir Wind Speed Gust Speed Precip Events Conditions
12:15 AM 66.2 °F - 59.0 °F 78% 29.96 in 10.0 mi West 4.6 mph - N/A   Clear
12:35 AM 68.0 °F - 59.0 °F 73% 29.96 in 10.0 mi Calm Calm - N/A   Clear
12:55 AM 66.2 °F - 59.0 °F 78% 29.96 in 10.0 mi Calm Calm - N/A   Clear
1:15 AM 64.4 °F - 59.0 °F 83% 29.97 in 10.0 mi WSW 3.5 mph - N/A   Clear
1:35 AM 64.4 °F - 59.0 °F 83% 29.97 in 10.0 mi Calm Calm - N/A   Clear
1:55 AM 64.4 °F - 57.2 °F 77% 29.97 in 10.0 mi Calm Calm - N/A   Clear
2:15 AM 62.6 °F - 57.2 °F 82% 29.96 in 10.0 mi WSW 4.6 mph - N/A   Clear
2:35 AM 62.6 °F - 59.0 °F 88% 29.96 in 10.0 mi West 3.5 mph - N/A   Clear
2:55 AM 60.8 °F - 57.2 °F 88% 29.96 in 10.0 mi West 4.6 mph - N/A   Clear
3:15 AM 60.8 °F - 57.2 °F 88% 29.97 in 10.0 mi NW 4.6 mph - N/A   Clear
3:35 AM 62.6 °F - 57.2 °F 82% 29.97 in 7.0 mi WNW 6.9 mph - N/A   Clear
3:55 AM 62.6 °F - 57.2 °F 82% 29.97 in 10.0 mi WNW 6.9 mph - N/A   Clear
4:15 AM 60.8 °F - 57.2 °F 88% 29.98 in 10.0 mi WNW 5.8 mph - N/A   Clear
4:35 AM 60.8 °F - 55.4 °F 82% 29.97 in 10.0 mi WNW 4.6 mph - N/A   Clear
4:55 AM 60.8 °F - 55.4 °F 82% 29.97 in 10.0 mi NW 3.5 mph - N/A   Clear
5:15 AM 60.8 °F - 55.4 °F 82% 29.97 in 10.0 mi NW 8.1 mph - N/A   Clear
5:35 AM 60.8 °F - 55.4 °F 82% 29.98 in 10.0 mi NW 8.1 mph - N/A   Clear
5:55 AM 60.8 °F - 55.4 °F 82% 29.99 in 10.0 mi NW 4.6 mph - N/A   Clear
6:15 AM 60.8 °F - 55.4 °F 82% 29.98 in 10.0 mi NW 3.5 mph - N/A   Clear
6:35 AM 60.8 °F - 55.4 °F 82% 29.99 in 10.0 mi NW 4.6 mph - N/A   Clear
6:55 AM 59.0 °F - 55.4 °F 88% 29.99 in 10.0 mi NW 6.9 mph - N/A   Clear
7:15 AM 60.8 °F - 55.4 °F 82% 30.00 in 10.0 mi NW 6.9 mph - N/A   Clear
7:35 AM 60.8 °F - 55.4 °F 82% 30.00 in 10.0 mi NW 6.9 mph - N/A   Clear
7:55 AM 62.6 °F - 57.2 °F 82% 30.01 in 10.0 mi Calm Calm - N/A   Clear
8:15 AM 64.4 °F - 57.2 °F 77% 30.00 in 10.0 mi North 3.5 mph - N/A   Clear
8:35 AM 66.2 °F - 59.0 °F 78% 30.01 in 10.0 mi NNW 4.6 mph - N/A   Clear
8:55 AM 68.0 °F - 59.0 °F 73% 30.02 in 10.0 mi NW 3.5 mph - N/A   Clear
9:15 AM 69.8 °F - 59.0 °F 68% 30.02 in 10.0 mi NW 5.8 mph - N/A   Clear
9:35 AM 73.4 °F - 59.0 °F 61% 30.02 in 10.0 mi NNW 4.6 mph - N/A   Clear
9:55 AM 73.4 °F - 59.0 °F 61% 30.02 in 10.0 mi NNW 5.8 mph - N/A   Clear
10:15 AM 75.2 °F - 57.2 °F 53% 30.02 in 10.0 mi North 6.9 mph - N/A   Clear
10:35 AM 77.0 °F - 55.4 °F 47% 30.02 in 10.0 mi North 4.6 mph - N/A   Clear
10:55 AM 78.8 °F - 55.4 °F 44% 30.02 in 10.0 mi North 3.5 mph - N/A   Clear
11:15 AM 80.6 °F 80.5 °F 55.4 °F 42% 30.02 in 10.0 mi NNE 3.5 mph - N/A   Clear
11:35 AM 80.6 °F 80.5 °F 55.4 °F 42% 30.02 in 10.0 mi Calm Calm - N/A   Clear
11:55 AM 82.4 °F 81.4 °F 53.6 °F 37% 30.01 in 10.0 mi Calm Calm - N/A   Clear
12:15 PM 84.2 °F - 51.8 °F 33% 30.01 in 10.0 mi Calm Calm - N/A   Clear
12:35 PM 86.0 °F - 51.8 °F 31% 30.00 in 10.0 mi SSW 4.6 mph - N/A   Clear
12:55 PM 86.0 °F - 51.8 °F 31% 30.00 in 10.0 mi SSW 3.5 mph - N/A   Clear
1:15 PM 86.0 °F - 50.0 °F 29% 30.00 in 10.0 mi Calm Calm - N/A   Clear
1:35 PM 86.0 °F - 50.0 °F 29% 29.99 in 10.0 mi South 5.8 mph - N/A   Clear
1:55 PM 87.8 °F - 50.0 °F 27% 29.99 in 10.0 mi South 5.8 mph - N/A   Clear
2:15 PM 87.8 °F - 46.4 °F 24% 29.98 in 10.0 mi SSW 6.9 mph - N/A   Clear
3:15 PM 89.6 °F - 50.0 °F 26% 29.95 in 10.0 mi SSE 5.8 mph - N/A   Clear
3:35 PM 89.6 °F - 50.0 °F 26% 29.95 in 10.0 mi SW 6.9 mph - N/A   Clear
3:55 PM 89.6 °F - 48.2 °F 24% 29.94 in 10.0 mi WSW 3.5 mph - N/A   Clear
4:15 PM 89.6 °F - 48.2 °F 24% 29.93 in 10.0 mi SSE 5.8 mph - N/A   Clear
4:35 PM 89.6 °F - 48.2 °F 24% 29.92 in 10.0 mi SSE 8.1 mph - N/A   Clear
4:55 PM 89.6 °F - 44.6 °F 21% 29.91 in 10.0 mi SSE 9.2 mph - N/A   Clear
5:15 PM 89.6 °F - 46.4 °F 22% 29.91 in 10.0 mi South 6.9 mph - N/A   Clear
5:35 PM 89.6 °F - 46.4 °F 22% 29.91 in 10.0 mi SE 10.4 mph - N/A   Clear
5:55 PM 89.6 °F - 50.0 °F 26% 29.91 in 10.0 mi South 12.7 mph 19.6 mph N/A   Clear
6:15 PM 89.6 °F - 51.8 °F 27% 29.91 in 10.0 mi South 12.7 mph 18.4 mph N/A   Clear
6:35 PM 87.8 °F - 51.8 °F 29% 29.91 in 10.0 mi South 10.4 mph - N/A   Clear
6:55 PM 87.8 °F - 51.8 °F 29% 29.91 in 10.0 mi SSE 10.4 mph - N/A   Clear
7:15 PM 86.0 °F - 51.8 °F 31% 29.90 in 10.0 mi SSE 10.4 mph - N/A   Clear
7:35 PM 86.0 °F - 51.8 °F 31% 29.91 in 10.0 mi SSE 9.2 mph - N/A   Clear
7:55 PM 82.4 °F 81.4 °F 53.6 °F 37% 29.91 in 10.0 mi SSE 10.4 mph - N/A   Clear
8:15 PM 80.6 °F 80.3 °F 53.6 °F 39% 29.91 in 10.0 mi SSE 8.1 mph - N/A   Clear
8:35 PM 80.6 °F 80.5 °F 55.4 °F 42% 29.91 in 10.0 mi SSE 8.1 mph - N/A   Clear
8:55 PM 78.8 °F - 55.4 °F 44% 29.91 in 10.0 mi SSE 6.9 mph - N/A   Clear
9:15 PM 78.8 °F - 55.4 °F 44% 29.91 in 10.0 mi SSE 6.9 mph - N/A   Scattered Clouds
9:35 PM 77.0 °F - 57.2 °F 50% 29.91 in 10.0 mi SSE 5.8 mph - N/A   Clear
9:55 PM 77.0 °F - 55.4 °F 47% 29.92 in 10.0 mi SSE 6.9 mph - N/A   Clear
10:15 PM 77.0 °F - 55.4 °F 47% 29.92 in 10.0 mi SSE 8.1 mph - N/A   Scattered Clouds
10:35 PM 75.2 °F - 57.2 °F 53% 29.92 in 10.0 mi SSE 8.1 mph - N/A   Scattered Clouds
10:55 PM 75.2 °F - 57.2 °F 53% 29.92 in 10.0 mi SSE 9.2 mph - N/A   Scattered Clouds
11:15 PM 75.2 °F - 55.4 °F 50% 29.92 in 10.0 mi SSE 9.2 mph - N/A   Scattered Clouds
11:35 PM 73.4 °F - 55.4 °F 53% 29.91 in 10.0 mi SSE 9.2 mph - N/A   Clear
11:55 PM 73.4 °F - 55.4 °F 53% 29.91 in 10.0 mi SE 8.1 mph - N/A   Clear